This demonstration page uses our WeatherBlox Daily Observations layout. Learn more.

Left ArrowRight Arrow

Hourly Observations for May 23, 2017

Temp ( °F °C ) Dew Point ( °F °C ) Humidity (%) Winds ( mph kmh ) Pressure ( in mb ) Visibility ( mi km ) Precip ( " mm )
12:52 am 00:52 Clear 60 15.6 51 10.6 72 72 SSE 7 11 29.85 1011 10 16 0.00 0.00
1:52 am 01:52 Cloudy 63 17.2 50 10 63 63 SSE 9 15 29.83 1010 10 16 0.00 0.00
2:52 am 02:52 Cloudy with Rain 59 15 54 12.2 83 83 WSW 3 6 29.83 1010 6 10 0.03 0.76
3:52 am 03:52 Cloudy with Light Rain 58 14.4 55 12.8 90 90 Calm 29.82 1010 10 16 0.00 0.03
4:52 am 04:52 Cloudy 59 15 56 13.3 90 90 Calm 29.81 1010 10 16 0.01 0.25
5:52 am 05:52 Cloudy 58 14.4 57 13.9 97 97 SSW 3 6 29.81 1009 10 16 0.00 0.00
6:52 am 06:52 Cloudy 59 15 57 13.9 93 93 WSW 3 6 29.81 1010 10 16 0.00 0.00
7:52 am 07:52 Cloudy 60 15.6 58 14.4 93 93 WSW 5 7 29.81 1010 10 16 0.00 0.00
8:52 am 08:52 Cloudy 62 16.7 58 14.4 86 86 WNW 8 13 29.82 1010 10 16 0.00 0.00
9:07 am 09:07 Cloudy 63 17.2 58 14.4 84 84 NW 9 15 29.80 1009 10 16 0.00 0.00
9:26 am 09:26 Cloudy 62 16.7 57 13.9 84 84 NW 10 17 29.80 1009 10 16 0.00 0.00
9:40 am 09:40 Cloudy 63 17.2 57 13.9 81 81 NNW 12 19 29.80 1009 10 16 0.00 0.00
9:52 am 09:52 Mostly Cloudy 65 18.3 57 13.9 76 76 N 15 24 29.80 1009 10 16 0.00 0.00
10:52 am 10:52 Mostly Cloudy 65 18.3 58 14.4 78 78 NW 14 22 29.81 1009 10 16 0.00 0.00
11:52 am 11:52 Mostly Cloudy 65 18.3 56 13.3 73 73 NW 9 15 29.80 1009 10 16 0.00 0.00
12:52 pm 12:52 Cloudy 66 18.9 56 13.3 70 70 NNW 16 26 29.80 1009 10 16 0.00 0.00
1:26 pm 13:26 Cloudy 65 18.3 55 12.8 70 70 NW 10 17 29.77 1008 10 16 0.00 0.00
1:52 pm 13:52 Cloudy 65 18.3 55 12.8 70 70 NNW 13 20 29.78 1009 10 16 0.00 0.00
1:59 pm 13:59 Mostly Cloudy 65 18.3 55 12.8 70 70 NNW 14 22 29.77 1008 10 16 0.00 0.00
2:52 pm 14:52 Cloudy 63 17.2 55 12.8 76 76 NW 12 19 29.78 1009 10 16 0.00 0.00
3:52 pm 15:52 Cloudy 62 16.7 54 12.2 75 75 NW 8 13 29.78 1008 10 16 0.00 0.03
4:52 pm 16:52 Mostly Sunny 66 18.9 51 10.6 59 59 NNW 15 24 29.76 1008 10 16 0.00 0.00
5:52 pm 17:52 Mostly Sunny 66 18.9 49 9.4 54 54 NNW 14 22 29.76 1008 10 16 0.00 0.00
6:52 pm 18:52 Sunny 65 18.3 48 8.9 54 54 NW 12 19 29.74 1007 10 16 0.00 0.00
7:52 pm 19:52 Sunny 62 16.7 48 8.9 60 60 NW 9 15 29.73 1007 10 16 0.00 0.00
8:52 pm 20:52 Mostly Clear 60 15.6 48 8.9 65 65 W 5 7 29.74 1007 10 16 0.00 0.00
9:52 pm 21:52 Cloudy 59 15 46 7.8 62 62 WNW 5 7 29.75 1008 10 16 0.00 0.03
10:52 pm 22:52 Mostly Cloudy 57 13.9 47 8.3 69 69 WNW 6 9 29.75 1007 10 16 0.00 0.00
11:52 pm 23:52 Mostly Cloudy 56 13.3 49 9.4 77 77 Calm 29.73 1007 10 16 0.00 0.00

Powered by AerisWeather